Youngstown, OH

1:27 AM EST on December 12, 2019 (GMT -0500)
Youngstown-Warren Regional

Weather History for KYNG - September, 2019

Change the Weather History Date:

Tuesday, September 10, 2019

  Actual Average Record
Temperature  
Mean Temperature 71 °F 64 °F  
Max Temperature 87 °F 75 °F 93 °F (1941)
Min Temperature 55 °F 53 °F 37 °F (1956)
Degree Days  
Heating Degree Days 0 3  
Month to date heating degree days 9 23  
Since 1 July heating degree days 15 61  
Cooling Degree Days 6 2  
Month to date cooling degree days 21 27  
Year to date cooling degree days 685 513  
Growing Degree Days 21 (Base 50)    
Moisture  
Dew Point 58 °F    
Average Humidity 65    
Maximum Humidity 93    
Minimum Humidity 43    
Precipitation  
Precipitation 0.00 in 0.13 in 1.96 in (2011)
Month to date precipitation 0.67 1.25  
Year to date precipitation 35.19 27.47  
Snow  
Snow 0.00 in 0.00 in - ()
Month to date snowfall 0.0 0.0  
Since 1 July snowfall 0.0 0.0  
Since 1 September snowfall 0.0 0.0  
Snow Depth 0.00 in    
Sea Level Pressure  
Sea Level Pressure 30.21 in    
Wind  
Wind Speed 6 mph ()    
Max Wind Speed 12 mph    
Max Gust Speed 15 mph    
Visibility 10.0 miles    
Events      
T = Trace of Precipitation, MM = Missing Value Source: Averaged Metar Reports

Daily Weather History Graph

Daily Weather History Graph

Search for Another Location

Airport or City:

Astronomy

Sep. 10, 2019 Rise Set
Actual Time 6:57 AM EDT 7:40 PM EDT
Civil Twilight 6:30 AM EDT 8:08 PM EDT
Nautical Twilight 5:56 AM EDT 8:41 PM EDT
Astronomical Twilight 5:22 AM EDT 9:15 PM EDT
Moon 6:18 PM EDT (9/10) 3:19 AM EDT (9/10)
Length of Visible Light 13h 38m
Length of Day
12h 42m
Waxing Gibbous, 89% of the Moon is Illuminated
Sep 10
Waxing Gibbous
Sep 14
Full
Sep 21
Last Quarter
Sep 28
New
Oct 5
First Quarter

Hourly Weather History & Observations

Time (EDT) Temp. Heat Index Dew Point Humidity Pressure Visibility Wind Dir Wind Speed Gust Speed Precip Events Conditions
12:51 AM 55.9 °F - 52.0 °F 87% 30.26 in 10.0 mi East 6.9 mph - N/A   Overcast
2:51 AM 55.0 °F - 52.0 °F 89% 30.27 in 10.0 mi East 5.8 mph - N/A   Partly Cloudy
3:51 AM 55.9 °F - 52.0 °F 87% 30.24 in 10.0 mi East 8.1 mph - N/A   Partly Cloudy
4:51 AM 55.9 °F - 52.0 °F 87% 30.24 in 10.0 mi ESE 9.2 mph - N/A   Clear
5:51 AM 59.0 °F - 52.0 °F 78% 30.23 in 10.0 mi SE 9.2 mph - N/A   Clear
6:51 AM 55.9 °F - 51.1 °F 84% 30.26 in 10.0 mi SE 5.8 mph - N/A   Mostly Cloudy
7:51 AM 59.0 °F - 53.1 °F 81% 30.27 in 10.0 mi SE 6.9 mph - N/A   Mostly Cloudy
8:51 AM 66.0 °F - 55.9 °F 70% 30.25 in 10.0 mi SSE 8.1 mph - N/A   Overcast
9:51 AM 70.0 °F - 57.9 °F 65% 30.25 in 10.0 mi South 6.9 mph - N/A   Overcast
10:51 AM 73.0 °F - 60.1 °F 64% 30.24 in 10.0 mi SSE 8.1 mph - N/A   Overcast
11:51 AM 78.1 °F - 61.0 °F 56% 30.23 in 10.0 mi South 8.1 mph - N/A   Overcast
12:51 PM 80.1 °F 81.1 °F 61.0 °F 52% 30.22 in 10.0 mi SSW 6.9 mph - N/A   Overcast
1:51 PM 82.9 °F 83.7 °F 62.1 °F 49% 30.22 in 10.0 mi SW 5.8 mph - N/A   Mostly Cloudy
2:51 PM 84.0 °F 84.5 °F 62.1 °F 47% 30.22 in 10.0 mi SW 5.8 mph - N/A   Mostly Cloudy
3:51 PM 84.0 °F 84.5 °F 62.1 °F 47% 30.19 in 10.0 mi South 5.8 mph - N/A   Overcast
4:51 PM 87.1 °F 87.5 °F 62.1 °F 43% 30.18 in 10.0 mi SW 6.9 mph - N/A   Mostly Cloudy
5:51 PM 86.0 °F 86.3 °F 62.1 °F 44% 30.16 in 10.0 mi SW 6.9 mph - N/A   Mostly Cloudy
6:51 PM 82.9 °F 84.0 °F 63.0 °F 51% 30.15 in 10.0 mi SW 5.8 mph - N/A   Scattered Clouds
7:51 PM 78.1 °F - 61.0 °F 56% 30.15 in 10.0 mi SSW 6.9 mph - N/A   Scattered Clouds
8:51 PM 75.9 °F - 61.0 °F 60% 30.14 in 10.0 mi South 5.8 mph - N/A   Mostly Cloudy
9:51 PM 75.9 °F - 61.0 °F 60% 30.13 in 10.0 mi South 5.8 mph - N/A   Mostly Cloudy
10:51 PM 73.9 °F - 62.1 °F 66% 30.15 in 10.0 mi South 4.6 mph - N/A   Mostly Cloudy
11:51 PM 73.0 °F - 62.1 °F 68% 30.16 in 10.0 mi South 4.6 mph - N/A   Mostly Cloudy